This demonstration page uses our WeatherBlox Daily Observations layout. Learn more.

36.17497, -115.13722

Hourly Observations for July 12, 2019

Temp ( °F °C ) Dew Point ( °F °C ) Humidity (%) Winds ( mph kmh ) Pressure ( in mb ) Visibility ( mi km ) Precip ( " mm )
12:53 am 00:53 Clear 92 33.3 32 0 12 12 E 3 6 29.83 1010 10 16.09344 0 0
1:53 am 01:53 Clear 93 33.9 34 1.1 12 12 WSW 6 9 29.8 1009 10 16.09344 0 0
2:53 am 02:53 Clear 90 32.2 32 0 13 13 NNE 5 7 29.83 1010 10 16.09344 0 0
3:53 am 03:53 Clear 90 32.2 32 0 13 13 Calm 29.83 1010 10 16.09344 0 0
4:53 am 04:53 Clear 88 31.1 33 0.6 14 14 NE 5 7 29.83 1010 10 16.09344 0 0
5:53 am 05:53 Sunny 87 30.6 33 0.6 14 14 N 7 11 29.83 1010 10 16.09344 0 0
6:53 am 06:53 Sunny 87 30.6 34 1.1 15 15 NW 3 6 29.85 1011 10 16.09344 0 0
7:53 am 07:53 Sunny 92 33.3 38 3.3 15 15 NNE 8 13 29.85 1011 10 16.09344 0 0
8:53 am 08:53 Sunny 96 35.6 37 2.8 13 13 NNE 6 9 29.85 1011 10 16.09344 0 0
9:53 am 09:53 Sunny 99 37.2 37 2.8 12 12 ESE 12 19 29.85 1011 10 16.09344 0 0
10:53 am 10:53 Sunny 101 38.3 38 3.3 11 11 Calm 29.85 1011 10 16.09344 0 0
11:53 am 11:53 Sunny 102 38.9 40 4.4 12 12 SSE 8 13 29.83 1010 10 16.09344 0 0
12:53 pm 12:53 Sunny 104 40 41 5 12 12 SE 14 22 29.83 1010 10 16.09344 0 0
1:53 pm 13:53 Sunny 106 41.1 41 5 11 11 ESE 9 15 29.77 1008 10 16.09344 0 0
2:53 pm 14:53 Sunny 106 41.1 41 5 11 11 E 14 22 29.74 1007 10 16.09344 0 0
3:53 pm 15:53 Partly Cloudy with Light Rain 102 38.9 43 6.1 13 13 NNW 13 20 29.74 1007 10 16.09344 0.001 0.001
4:53 pm 16:53 Partly Cloudy with Light Rain 97 36.1 51 10.6 21 21 WSW 21 33 29.74 1007 10 16.09344 0.001 0.001
5:19 pm 17:19 Mostly Cloudy 100 37.8 44 6.7 15 15 Calm 29.59 1002 10 16.09344 0.001 0.001
5:53 pm 17:53 Partly Cloudy 101 38.3 43 6.1 14 14 VRB 3 6 29.74 1007 10 16.09344 0.001 0.001
6:53 pm 18:53 Mostly Sunny 101 38.3 43 6.1 14 14 NE 12 19 29.74 1007 10 16.09344 0.001 0.001
7:53 pm 19:53 Sunny 100 37.8 43 6.1 14 14 NW 6 9 29.74 1007 10 16.09344 0 0
8:53 pm 20:53 Clear 97 36.1 45 7.2 17 17 WNW 5 7 29.74 1007 10 16.09344 0 0
9:53 pm 21:53 Clear 95 35 46 7.8 19 19 Calm 29.74 1007 10 16.09344 0 0
10:53 pm 22:53 Clear 92 33.3 49 9.4 23 23 W 3 6 29.77 1008 10 16.09344 0 0
11:53 pm 23:53 Clear 89 31.7 48 8.9 24 24 NNW 5 7 29.77 1008 10 16.09344 0 0

Powered by AerisWeather